EDT,Max TemperatureF,Mean TemperatureF,Min TemperatureF,Max Dew PointF,MeanDew PointF,Min DewpointF,Max Humidity, Mean Humidity, Min Humidity, Max Sea Level PressureIn, Mean Sea Level PressureIn, Min Sea Level PressureIn, Max VisibilityMiles, Mean VisibilityMiles, Min VisibilityMiles, Max Wind SpeedMPH, Mean Wind SpeedMPH, Max Gust SpeedMPH,PrecipitationIn, CloudCover, Events, WindDirDegrees
2013-10-1,81,67,53,60,56,51,93,68,42,30.07,30.03,29.97,10,9,2,10,4,15,0.00,1,,252
2013-10-2,86,73,59,61,59,56,90,64,37,30.07,30.03,30.00,10,10,7,12,4,16,0.00,0,,259
2013-10-3,85,74,62,66,62,60,93,69,44,30.12,30.09,30.06,10,7,1,10,2,25,0.00,0,,181
2013-10-4,88,75,61,68,62,57,97,69,40,30.09,30.06,30.01,10,7,2,8,2,14,0.00,0,,262
2013-10-5,89,77,64,67,65,61,100,73,46,30.09,30.06,30.03,10,5,0,10,2,14,0.00,1,Fog,118
2013-10-6,90,76,62,67,64,59,93,67,41,30.06,30.04,29.99,10,6,0,16,6,21,0.00,0,Fog,179
2013-10-7,86,74,61,72,65,57,93,74,55,30.04,29.92,29.84,10,7,2,28,8,43,0.78,7,Rain,199
2013-10-8,65,60,54,56,48,45,78,65,52,30.27,30.20,30.06,10,10,10,20,7,25,0.00,1,,11
2013-10-9,64,62,59,57,54,49,90,77,64,30.27,30.23,30.15,10,8,2,22,16,32,1.01,6,Rain,48
2013-10-10,68,64,60,63,60,57,93,92,90,30.13,30.00,29.91,10,3,1,25,18,36,0.98,8,Rain,49
2013-10-11,68,67,65,66,65,63,100,97,93,29.95,29.90,29.86,10,3,1,23,16,33,0.75,8,Rain,55
2013-10-12,66,65,63,64,62,61,93,90,87,30.12,30.05,29.95,10,5,2,25,16,37,0.84,8,Rain,48
2013-10-13,66,64,62,59,57,56,84,79,73,30.31,30.21,30.12,10,8,2,24,16,33,0.05,8,Rain,55
2013-10-14,69,61,53,57,56,51,93,78,63,30.32,30.27,30.24,10,10,10,15,6,18,0.00,5,,45
2013-10-15,68,60,51,57,54,49,93,78,63,30.24,30.15,30.09,10,10,10,15,6,20,0.00,5,,46
2013-10-16,72,66,60,61,60,58,93,81,68,30.08,30.01,29.95,10,10,10,3,3,5,0.00,5,,75
2013-10-17,78,69,59,64,62,57,100,80,60,29.94,29.89,29.78,10,6,0,14,7,18,0.04,5,Fog-Rain,199
2013-10-18,70,59,48,64,49,42,93,68,42,30.04,29.93,29.78,10,10,10,15,5,25,T,2,,284
2013-10-19,65,55,45,61,53,43,97,82,67,30.02,29.91,29.82,10,8,6,13,4,18,0.02,4,Rain,177
2013-10-20,64,54,43,57,40,34,89,63,36,30.13,30.01,29.86,10,10,10,13,4,20,0.00,1,,314
2013-10-21,68,54,40,49,43,37,93,64,34,30.19,30.10,30.01,10,10,10,14,3,20,0.00,0,,172
2013-10-22,69,59,48,52,48,46,93,70,47,30.00,29.88,29.81,10,10,10,12,3,16,T,2,,277
2013-10-23,56,49,42,48,43,37,86,71,55,29.86,29.73,29.65,10,9,2,9,4,13,0.25,6,Rain,338
2013-10-24,53,45,36,38,33,27,86,62,38,30.12,30.02,29.88,10,10,9,10,4,24,0.00,1,,271
2013-10-25,55,45,35,36,33,30,85,66,46,30.32,30.22,30.13,10,10,10,14,4,21,0.00,1,,290
2013-10-26,59,45,31,37,33,30,92,63,33,30.31,30.17,29.97,10,10,8,26,8,36,0.00,1,,213
2013-10-27,61,50,39,39,35,31,86,59,32,30.17,30.05,29.96,10,10,10,17,6,25,0.00,1,,275
2013-10-28,67,51,35,49,41,33,92,66,40,30.28,30.23,30.17,10,9,7,12,2,15,0.00,1,,222
2013-10-29,65,56,46,50,47,43,93,75,56,30.36,30.33,30.28,10,9,7,13,5,20,0.00,1,,38
2013-10-30,60,53,45,56,51,43,96,88,80,30.33,30.26,30.20,10,8,6,9,2,12,T,6,Rain,166
2013-10-31,75,63,50,64,56,51,100,79,57,30.20,30.10,29.89,10,6,0,21,9,27,0.01,2,Fog-Rain,194